TimeCST,TemperatureF,Dew PointF,Humidity,Sea Level PressureIn,VisibilityMPH,Wind Direction,Wind SpeedMPH,Gust SpeedMPH,PrecipitationIn,Events,Conditions,WindDirDegrees,DateUTC
12:15 AM,51.8,48.2,88,29.87,7.0,Calm,Calm,-,N/A,Rain-Thunderstorm,Light Thunderstorms and Rain,0,2014-01-11 06:15:00
12:35 AM,51.8,50.0,94,29.87,5.0,SSE,5.8,-,N/A,,Light Drizzle,150,2014-01-11 06:35:00
12:55 AM,51.8,50.0,94,29.86,5.0,SE,4.6,-,N/A,Rain,Rain,140,2014-01-11 06:55:00
1:15 AM,51.8,50.0,94,29.83,5.0,SSE,3.5,-,N/A,,Drizzle,160,2014-01-11 07:15:00
1:35 AM,51.8,50.0,94,29.82,5.0,Calm,Calm,-,N/A,Rain,Light Rain,0,2014-01-11 07:35:00
1:55 AM,51.8,50.0,94,29.80,7.0,Calm,Calm,-,N/A,Rain-Thunderstorm,Light Thunderstorms and Rain,0,2014-01-11 07:55:00
2:15 AM,53.6,50.0,88,29.78,7.0,East,4.6,-,N/A,,Overcast,90,2014-01-11 08:15:00
2:35 AM,53.6,51.8,94,29.78,7.0,WSW,8.1,-,N/A,Thunderstorm,Overcast,240,2014-01-11 08:35:00
2:55 AM,53.6,51.8,94,29.75,5.0,SSE,3.5,-,N/A,,Overcast,150,2014-01-11 08:55:00
3:15 AM,55.4,51.8,88,29.74,10.0,South,5.8,-,N/A,,Overcast,180,2014-01-11 09:15:00
3:35 AM,55.4,53.6,94,29.73,7.0,SW,4.6,-,N/A,Rain-Thunderstorm,Light Thunderstorms and Rain,220,2014-01-11 09:35:00
3:55 AM,55.4,53.6,94,29.70,7.0,SW,6.9,-,N/A,Thunderstorm,Thunderstorm,230,2014-01-11 09:55:00
4:15 AM,57.2,53.6,88,29.70,7.0,SW,12.7,-,N/A,,Overcast,230,2014-01-11 10:15:00
4:35 AM,59.0,55.4,88,29.70,4.0,SSW,8.1,-,N/A,Thunderstorm,Unknown,200,2014-01-11 10:35:00
4:55 AM,59.0,55.4,88,29.68,7.0,Calm,Calm,-,N/A,Rain-Thunderstorm,Thunderstorms and Rain,0,2014-01-11 10:55:00
5:15 AM,60.8,57.2,88,29.71,3.0,SSW,10.4,24.2,0.01,Rain-Thunderstorm,Thunderstorms and Rain,210,2014-01-11 11:15:00
5:35 AM,59.0,55.4,88,29.73,4.0,SW,9.2,-,0.01,Rain,Rain,220,2014-01-11 11:35:00
5:55 AM,57.2,53.6,88,29.72,7.0,SW,9.2,-,0.01,Rain,Light Rain,230,2014-01-11 11:55:00
6:15 AM,55.4,53.6,94,29.74,4.0,SW,9.2,-,N/A,Rain,Rain,220,2014-01-11 12:15:00
6:35 AM,55.4,53.6,94,29.76,4.0,West,10.4,16.1,N/A,Rain-Thunderstorm,Heavy Thunderstorms and Rain,280,2014-01-11 12:35:00
6:55 AM,55.4,53.6,94,29.77,10.0,West,6.9,-,N/A,Rain,Rain,270,2014-01-11 12:55:00
7:15 AM,55.4,51.8,88,29.77,10.0,WSW,3.5,-,N/A,Rain,Light Rain,240,2014-01-11 13:15:00
7:35 AM,53.6,51.8,94,29.75,10.0,Calm,Calm,-,N/A,Rain-Thunderstorm,Rain,0,2014-01-11 13:35:00
7:55 AM,53.6,51.8,94,29.73,10.0,SE,3.5,-,N/A,Rain,Light Rain,130,2014-01-11 13:55:00
8:15 AM,53.6,51.8,94,29.76,10.0,Calm,Calm,-,N/A,,Scattered Clouds,0,2014-01-11 14:15:00
8:35 AM,53.6,50.0,88,29.78,10.0,Calm,Calm,-,N/A,,Mostly Cloudy,0,2014-01-11 14:35:00
8:55 AM,53.6,51.8,94,29.79,10.0,SW,3.5,-,N/A,,Scattered Clouds,230,2014-01-11 14:55:00
9:15 AM,53.6,51.8,94,29.79,10.0,SW,3.5,-,N/A,,Clear,220,2014-01-11 15:15:00
9:35 AM,55.4,51.8,88,29.80,10.0,WSW,4.6,-,N/A,,Scattered Clouds,240,2014-01-11 15:35:00
9:55 AM,55.4,51.8,88,29.81,10.0,WSW,8.1,-,N/A,,Mostly Cloudy,250,2014-01-11 15:55:00
10:15 AM,55.4,51.8,88,29.80,10.0,WSW,11.5,-,N/A,,Mostly Cloudy,240,2014-01-11 16:15:00
10:35 AM,59.0,51.8,77,29.79,10.0,West,10.4,16.1,0.01,,Overcast,280,2014-01-11 16:35:00
10:55 AM,59.0,48.2,67,29.79,10.0,WSW,16.1,-,0.01,,Scattered Clouds,250,2014-01-11 16:55:00
11:15 AM,59.0,44.6,59,29.78,10.0,West,15.0,24.2,N/A,,Clear,270,2014-01-11 17:15:00
11:35 AM,59.0,42.8,55,29.77,10.0,West,12.7,16.1,N/A,,Clear,280,2014-01-11 17:35:00
11:55 AM,59.0,37.4,45,29.76,10.0,WSW,13.8,17.3,N/A,,Clear,250,2014-01-11 17:55:00
12:15 PM,59.0,33.8,39,29.75,10.0,West,10.4,-,N/A,,Clear,260,2014-01-11 18:15:00
12:35 PM,59.0,35.6,42,29.74,10.0,WSW,9.2,19.6,N/A,,Clear,250,2014-01-11 18:35:00
12:55 PM,60.8,35.6,39,29.74,10.0,West,11.5,16.1,N/A,,Clear,270,2014-01-11 18:55:00
1:15 PM,60.8,32.0,34,29.73,10.0,WSW,10.4,-,N/A,,Clear,250,2014-01-11 19:15:00
1:35 PM,59.0,32.0,36,29.73,10.0,WSW,16.1,21.9,N/A,,Clear,250,2014-01-11 19:35:00
1:55 PM,60.8,32.0,34,29.73,10.0,WSW,15.0,19.6,N/A,,Scattered Clouds,250,2014-01-11 19:55:00
2:15 PM,60.8,32.0,34,29.72,10.0,West,11.5,-,N/A,,Scattered Clouds,270,2014-01-11 20:15:00
2:35 PM,60.8,32.0,34,29.72,10.0,WSW,17.3,20.7,N/A,,Scattered Clouds,240,2014-01-11 20:35:00
2:55 PM,59.0,32.0,36,29.72,10.0,WSW,11.5,19.6,N/A,,Mostly Cloudy,250,2014-01-11 20:55:00
3:15 PM,60.8,32.0,34,29.73,10.0,WSW,12.7,25.3,N/A,,Scattered Clouds,250,2014-01-11 21:15:00
3:35 PM,59.0,32.0,36,29.73,10.0,West,18.4,24.2,N/A,,Clear,260,2014-01-11 21:35:00
3:55 PM,59.0,32.0,36,29.75,10.0,WSW,12.7,24.2,N/A,,Scattered Clouds,250,2014-01-11 21:55:00
4:15 PM,57.2,30.2,36,29.76,10.0,WSW,17.3,26.5,N/A,,Clear,250,2014-01-11 22:15:00
4:35 PM,55.4,32.0,41,29.77,10.0,WSW,10.4,-,N/A,,Scattered Clouds,250,2014-01-11 22:35:00
4:55 PM,55.4,32.0,41,29.78,10.0,West,16.1,24.2,N/A,,Mostly Cloudy,280,2014-01-11 22:55:00
5:15 PM,53.6,32.0,44,29.79,10.0,West,11.5,17.3,N/A,,Scattered Clouds,270,2014-01-11 23:15:00
5:35 PM,53.6,33.8,47,29.80,10.0,West,11.5,18.4,N/A,,Scattered Clouds,280,2014-01-11 23:35:00
5:55 PM,53.6,35.6,51,29.82,10.0,WNW,10.4,-,N/A,,Mostly Cloudy,290,2014-01-11 23:55:00
6:15 PM,51.8,35.6,54,29.84,10.0,West,11.5,17.3,N/A,,Mostly Cloudy,280,2014-01-12 00:15:00
6:35 PM,51.8,33.8,50,29.85,10.0,West,10.4,20.7,N/A,,Scattered Clouds,270,2014-01-12 00:35:00
6:55 PM,51.8,35.6,54,29.87,10.0,WNW,10.4,16.1,N/A,,Mostly Cloudy,300,2014-01-12 00:55:00
7:15 PM,50.0,33.8,54,29.88,10.0,WNW,10.4,17.3,N/A,,Scattered Clouds,290,2014-01-12 01:15:00
7:35 PM,50.0,33.8,54,29.90,10.0,WNW,6.9,16.1,N/A,,Clear,290,2014-01-12 01:35:00
7:55 PM,50.0,33.8,54,29.91,10.0,West,9.2,-,N/A,,Clear,280,2014-01-12 01:55:00
8:15 PM,48.2,33.8,58,29.92,10.0,West,6.9,-,N/A,,Clear,280,2014-01-12 02:15:00
8:35 PM,46.4,33.8,62,29.93,10.0,West,5.8,-,N/A,,Clear,280,2014-01-12 02:35:00
8:55 PM,46.4,33.8,62,29.94,10.0,West,8.1,-,N/A,,Clear,280,2014-01-12 02:55:00
9:15 PM,46.4,33.8,62,29.95,10.0,West,6.9,-,N/A,,Clear,280,2014-01-12 03:15:00
9:35 PM,44.6,33.8,66,29.96,10.0,West,5.8,-,N/A,,Clear,280,2014-01-12 03:35:00
9:55 PM,44.6,33.8,66,29.97,10.0,West,6.9,-,N/A,,Clear,260,2014-01-12 03:55:00
10:15 PM,44.6,33.8,66,29.97,10.0,West,4.6,-,N/A,,Clear,270,2014-01-12 04:15:00
10:35 PM,42.8,33.8,70,29.97,10.0,WSW,4.6,-,N/A,,Clear,240,2014-01-12 04:35:00
10:55 PM,42.8,33.8,70,29.98,10.0,Calm,Calm,-,N/A,,Clear,0,2014-01-12 04:55:00
11:15 PM,39.2,33.8,81,29.99,10.0,Calm,Calm,-,N/A,,Clear,0,2014-01-12 05:15:00
11:35 PM,41.0,33.8,76,29.99,10.0,SW,4.6,-,N/A,,Clear,220,2014-01-12 05:35:00
11:55 PM,41.0,33.8,76,29.99,10.0,Calm,Calm,-,N/A,,Clear,0,2014-01-12 05:55:00